Showing default

O3B FM5, 39188

Orbit data source: Space-Track

O3B FM5, 39188 is a payload satellite owned by O3B (JE) that was launched on Tue, 25 Jun 2013 UTC via a SOYUZ-ST-B launch vehicle from the French Guiana (FRGUI). Payload-class satellites include a variety of spacecraft equipped with specific instruments for various scientific and technological missions. These include communications satellites like Starlink; space stations such as the ISS; scientific satellites like the Hubble; Earth observation satellites from companies like Planet Labs, Umbra, and HawkEye 360; GPS; miniature CubeSats for education and research; and military/defense satellites.

Loading next visibility...
Identifier
39188, 2013-031A
Orbit
Active
Country
Flag of UnknownUnknown / O3B
Related business
Manufacturer
Thales Alenia
Mission
Operational Commercial Communications
Bus & Motor
PRISMA?, LS-400 AOCS?
Mass
700 kg wet, ~500 kg dry
Launch date (UTC)
2013-06-25 (12 years ago)
Launch vehicle
SOYUZ-ST-B
Launch site
French Guiana (FRGUI)
Object type
Payload
Rocket body
Debris
Shape & HBR
Trap Box + 2 Pan, 6.0 m
Radar Cross Section
21.980 m², Large (>1 m²)

Expand to show TLE details & history
Last TLE update: 2 weeks ago

TLE from 2 weeks ago
0 O3B FM5
1 39188U 13031A   25245.21050719 -.00000021  00000-0  00000-0 0  9994
2 39188   0.0355   1.1531 0002618 163.9132 194.9426  5.00116112222634
Epoch: 2025-09-02T05:03Z
TLE epoch observation values (Epoch: 2025-09-02T05:03:07.821Z)
Latitude
-0.00401°
Longitude
-57.38756°
Altitude
8,068.016 km
Speed
5.253 km/s
True Right ascension
00h 00m 00s
True Declination
0° 00' 14"
Sunlit
Object was in full shadow at epoch
Visualization orbit readout
Latitude
Unknown
Longitude
Unknown
Altitude
Unknown
Speed
Unknown
Apparent Right ascension
Unknown
Apparent Declination
Unknown
Sunlit
N/A
Visualization observer readout
Local Sidereal Time
14:08:52
Azimuth
Unknown
Elevation
Unknown
Doppler factor
Unknown
Orbital elements
Apogee altitude
8,072.719 km
Perigee altitude
8,065.155 km
Semi-major axis
14,447.074 km
Eccentricity
0.00026
Inclination
0.0355°
RAAN
1.1531°
Arg. of periapsis
163.9132°
True anomaly
194.93487°
Mean anomaly
194.9426°
Eccentric anomaly
194.93873°
Mean motion
1.24989 °/min
Orbital period
288.02 mins
BSTAR
0
Loading maneuver chart data...
Computing Atmospheric mass density...
Loading historical data...
Loading historical data...
Loading historical data...
Loading historical data...
Loading historical data...
Loading historical data...
Loading historical data...
Other satellites on launch #31 in the year 2013 (2013-06-25 UTC)

Documentation

Showing up to 5 results
|